Regional Weather Roundup
Issued by NWS

Home | Current Version | Previous Version | Text Only | Print | Product List | Glossary On
Versions: 1 2 3 4 5 6 7 8 9 10 11 12 13 14 15 16 17 18 19 20 21 22 23 24 25 26 27 28 29 30 31 32 33 34 35 36 37 38 39 40 41 42 43 44 45 46 47 48 49 50
065
ASUS46 KPQR 220610
RWROR

OREGON REGIONAL WEATHER ROUNDUP
NATIONAL WEATHER SERVICE PORTLAND OR
1000 PM PST SAT JAN 21 2017

NOTE: "FAIR" INDICATES FEW OR NO CLOUDS BELOW 12,000 FEET WITH
NO SIGNIFICANT WEATHER AND/OR OBSTRUCTIONS TO VISIBILITY.

ORZ001>013-220700-
NORTHWEST OREGON


CITY           SKY/WX    TMP DP  RH WIND       PRES   REMARKS
ASTORIA        MOCLDY    45  40  82 E5        29.54S
6HR MIN TEMP:  44; 6HR MAX TEMP:  49; 6HR PCP:  0.10;

NEWPORT        CLOUDY    43  41  93 E9        29.51F
PORTLAND       CLEAR     38  35  89 E13       29.61F WCI  30
6HR MIN TEMP:  37; 6HR MAX TEMP:  47; 6HR PCP:  0.01;

VANCOUVER WA   CLEAR     38  36  92 SE7       29.60F WCI  33
6HR MIN TEMP:  38; 6HR MAX TEMP:  48; 6HR PCP:  0.03;

SCAPPOOSE      FOG       38  38 100 CALM      29.59F VSB 3/4
6HR MIN TEMP:  38; 6HR MAX TEMP:  44; 6HR PCP:  0.06;

HILLSBORO      CLEAR     41  39  93 SE6       29.58F
6HR MIN TEMP:  41; 6HR MAX TEMP:  46; 6HR PCP:  0.10;

AURORA         CLEAR     40  38  93 N6        29.59F
6HR MIN TEMP:  40; 6HR MAX TEMP:  48; 6HR PCP:  0.07;

MCMINNVILLE    PTCLDY    43  39  86 E5        29.57F
6HR MIN TEMP:  40; 6HR MAX TEMP:  49; 6HR PCP:  0.07;

SALEM          PTCLDY    39  37  92 SW3       29.55F
6HR MIN TEMP:  38; 6HR MAX TEMP:  47; 6HR PCP:  0.06;

CORVALLIS        N/A     43  39  87 N3        29.53F
EUGENE         CLOUDY    37  37 100 CALM      29.53F
6HR MIN TEMP:  37; 6HR MAX TEMP:  46; 6HR PCP: TRACE;

$$

ORZ021-028-220700-
SOUTHWEST OREGON


CITY           SKY/WX    TMP DP  RH WIND       PRES   REMARKS
NORTH BEND     CLOUDY    45  43  93 SE6       29.47F
6HR MIN TEMP:  45; 6HR MAX TEMP:  50; 6HR PCP:  0.01;

BROOKINGS      LGT RAIN  46  41  82 VRB6      29.43F
ROSEBURG       CLOUDY    41  39  93 E3        29.50F
6HR MIN TEMP:  41; 6HR MAX TEMP:  50;

SEXTON SUMMIT  CLOUDY    32  31  96 SE15G28   29.43F WCI  22
6HR MIN TEMP:  32; 6HR MAX TEMP:  32;

MEDFORD        CLOUDY    40  39  97 SE5       29.51F
6HR MIN TEMP:  40; 6HR MAX TEMP:  50;

$$

ORZ014>016-041-220700-
COLUMBIA GORGE


CITY           SKY/WX    TMP DP  RH WIND       PRES   REMARKS
TROUTDALE      CLEAR     38  35  89 E21G29    29.62F WCI  28
6HR MIN TEMP:  38; 6HR MAX TEMP:  43; 6HR PCP:  0.04;

THE DALLES     PTCLDY    33  32  96 CALM      29.68S FOG
6HR MIN TEMP:  32; 6HR MAX TEMP:  38; 6HR PCP:  0.03;

$$

ORZ029>031-041-044-049-050-061>064-502-503-505>511-220700-
EASTERN OREGON


CITY           SKY/WX    TMP DP  RH WIND       PRES   REMARKS
REDMOND        MOCLDY    34  23  64 E3        29.60S
6HR MIN TEMP:  31; 6HR MAX TEMP:  41;

BEND           MOCLDY    30  25  80 CALM      29.59F
PRINEVILLE     PTCLDY    36  27  69 SE14G21   29.61F WCI  27
KLAMATH FALLS  CLOUDY    35  29  78 S14G26    29.62S WCI  26
6HR MIN TEMP:  33; 6HR MAX TEMP:  39;

LAKEVIEW       CLOUDY    30  23  74 S13       29.70S WCI  20
HERMISTON      CLOUDY    32  32 100 NW3       29.66S FOG
6HR MIN TEMP:  31; 6HR MAX TEMP:  35; 6HR PCP: TRACE;

PENDLETON      CLOUDY    44  34  67 S7        29.64F
6HR MIN TEMP:  36; 6HR MAX TEMP:  45; 6HR PCP: TRACE;

JOHN DAY       CLEAR     38  28  66 S14G20    29.68S WCI  30
MEACHAM        CLOUDY    33  26  75 E5        29.65R WCI  29
6HR MIN TEMP:  32; 6HR MAX TEMP:  34; 6HR PCP:  0.01;

LA GRANDE      CLOUDY    37  30  75 SE13G23   29.71R WCI  29
6HR MIN TEMP:  36; 6HR MAX TEMP:  37;

BAKER CITY     CLOUDY    32  28  85 SE15      29.73R WCI  22
6HR MIN TEMP:  31; 6HR MAX TEMP:  35; 6HR PCP: TRACE;

BURNS          PTCLDY     9   7  92 N7        29.73R WCI  -2
6HR MIN TEMP:   8; 6HR MAX TEMP:  30;

ROME             N/A     30  23  75 SE3       29.75R
6HR MIN TEMP:  30; 6HR MAX TEMP:  39;

ONTARIO        CLOUDY    33  31  92 N3        29.82R FOG
6HR MIN TEMP:  31; 6HR MAX TEMP:  36; 6HR PCP: TRACE;

$$




USA.gov is the U.S. government's official web portal to all federal, state and local government web resources and services.